TimeCST,TemperatureF,Dew PointF,Humidity,Sea Level PressureIn,VisibilityMPH,Wind Direction,Wind SpeedMPH,Gust SpeedMPH,PrecipitationIn,Events,Conditions,WindDirDegrees,DateUTC
12:52 AM,25.0,21.0,85,30.44,10.0,Calm,Calm,-,N/A,,Clear,0,2012-11-13 06:52:00
1:52 AM,24.1,19.9,84,30.43,10.0,Calm,Calm,-,N/A,,Clear,0,2012-11-13 07:52:00
2:52 AM,24.1,19.9,84,30.43,10.0,Calm,Calm,-,N/A,,Clear,0,2012-11-13 08:52:00
3:52 AM,23.0,19.9,88,30.43,10.0,Calm,Calm,-,N/A,,Clear,0,2012-11-13 09:52:00
4:52 AM,23.0,19.9,88,30.43,10.0,Calm,Calm,-,N/A,,Clear,0,2012-11-13 10:52:00
5:52 AM,23.0,19.9,88,30.43,10.0,Calm,Calm,-,N/A,,Clear,0,2012-11-13 11:52:00
6:52 AM,21.9,19.0,89,30.43,10.0,Calm,Calm,-,N/A,,Clear,0,2012-11-13 12:52:00
7:52 AM,25.0,21.9,88,30.44,10.0,Calm,Calm,-,N/A,,Clear,0,2012-11-13 13:52:00
8:52 AM,30.9,27.0,85,30.43,10.0,Calm,Calm,-,N/A,,Clear,0,2012-11-13 14:52:00
9:52 AM,41.0,30.9,67,30.43,10.0,SSW,5.8,-,N/A,,Clear,210,2012-11-13 15:52:00
10:52 AM,48.0,30.0,50,30.41,10.0,SSW,3.5,-,N/A,,Clear,200,2012-11-13 16:52:00
11:52 AM,55.0,30.0,38,30.38,10.0,SSW,11.5,-,N/A,,Clear,200,2012-11-13 17:52:00
12:52 PM,55.0,30.0,38,30.35,10.0,SSW,8.1,-,N/A,,Clear,200,2012-11-13 18:52:00
1:52 PM,61.0,27.0,27,30.32,10.0,SSW,15.0,20.7,N/A,,Clear,200,2012-11-13 19:52:00
2:52 PM,57.0,27.0,32,30.30,10.0,SSW,11.5,-,N/A,,Clear,200,2012-11-13 20:52:00
3:52 PM,55.0,28.0,35,30.30,10.0,SSW,10.4,-,N/A,,Clear,210,2012-11-13 21:52:00
4:52 PM,51.1,28.9,43,30.31,10.0,South,4.6,-,N/A,,Clear,190,2012-11-13 22:52:00
5:52 PM,48.0,30.0,50,30.33,4.0,SSE,4.6,-,N/A,,Haze,160,2012-11-13 23:52:00
6:52 PM,48.0,30.0,50,30.35,10.0,SSW,6.9,-,N/A,,Clear,210,2012-11-14 00:52:00
7:52 PM,45.0,30.0,56,30.36,10.0,South,3.5,-,N/A,,Clear,190,2012-11-14 01:52:00
8:52 PM,41.0,30.0,65,30.37,10.0,Calm,Calm,-,N/A,,Clear,0,2012-11-14 02:52:00
9:52 PM,45.0,30.0,56,30.37,10.0,South,3.5,-,N/A,,Clear,190,2012-11-14 03:52:00
10:52 PM,44.1,30.9,60,30.36,10.0,SSW,3.5,-,N/A,,Clear,200,2012-11-14 04:52:00
11:52 PM,43.0,26.1,51,30.34,10.0,SSW,4.6,-,N/A,,Clear,210,2012-11-14 05:52:00